カタログに戻る

STARLINK-31226

運用中通信VLEO
NORAD 58858·PAYLOAD·🇺🇸 United States

打ち上げ Jan 29, 2024 から Cape Canaveral Space Force Station

Loading…

次のパス (今後24時間)

TLE

最新Source: CelesTrak SupGP

元期: Sep 15, 2026, 02:31 UTC

1 58858C 24019F   26258.10534722 -.00015093  00000+0 -54665-3 0  2583
2 58858  43.0026 259.3457 0001497 267.1186 302.8743 15.27586269    17

AllMySatでSTARLINK-31226をリアルタイム追跡

Download on the App Store